Regional Weather Roundup
Issued by NWS

Home | Current Version | Previous Version | Text Only | Print | Product List | Glossary Off
Versions: 1 2 3 4 5 6 7 8 9 10 11 12 13 14 15 16 17 18 19 20 21 22 23 24 25 26 27 28 29 30 31 32 33 34 35 36 37 38 39 40 41 42 43 44 45 46 47 48 49 50

000
ASUS43 KLOT 062321
RWRIL

ILLINOIS REGIONAL WEATHER ROUNDUP
NATIONAL WEATHER SERVICE CHICAGO/ROMEOVILLE IL
600 PM CDT WED MAY 06 2015

NOTE: "FAIR" INDICATES FEW OR NO CLOUDS BELOW 12,000 FEET WITH NO
SIGNIFICANT WEATHER AND/OR OBSTRUCTIONS TO VISIBILITY.

* THESE STATIONS ARE NOT UNDER NWS QUALITY CONTROL. THEY ALSO MAY NOT
  REPORT WEATHER SUCH AS PRECIPITATION OR FOG.

ILZ001-002-007-009-015-016-024-070000-
NORTHWEST ILLINOIS

CITY           SKY/WX    TMP DP  RH WIND       PRES   REMARKS
MOLINE         CLOUDY    72  59  63 W17G29    30.00R
STERLING*      PTSUNNY   82  54  36 S6        30.01S HX  81
SAVANNA*       MOSUNNY   82  48  30 S16G22    29.99S HX  81
$$

ILZ003-004-008-010-011-017-018-070000-
NORTH CENTRAL ILLINOIS

CITY           SKY/WX    TMP DP  RH WIND       PRES   REMARKS
ROCKFORD       MOSUNNY   80  53  39 S13       30.05S HX  80
FREEPORT*      MOSUNNY   77  55  45 S13       30.04F
ROCHELLE*      PTSUNNY   79  57  47 S13       30.04F HX  80
DE KALB*       MOSUNNY   76  56  49 S10       30.06S
PERU*          PTSUNNY   81  51  34 S13       30.03F HX  80
$$

ILZ005-006-012>014-019>023-070000-
NORTHEAST ILLINOIS

CITY           SKY/WX    TMP DP  RH WIND       PRES   REMARKS
CHICAGO-OHARE  PTSUNNY   68  55  63 E9        30.07F
CHICAGO-MIDWAY PTSUNNY   67  56  67 E10       30.07F
AURORA         MOSUNNY   81  52  36 S10       30.05S HX  80
LANSING*       SUNNY     70  56  61 N6        30.08F
JOLIET*        SUNNY     83  52  34 S8        30.04F HX  82
WAUKEGAN       MOSUNNY   58  53  84 NE8       30.09F
DUPAGE AIRPORT MOSUNNY   75  60  59 E12       30.05F
KANKAKEE*      PTSUNNY   80  56  43 S7        30.06F HX  80
WHEELING       SUNNY     61  53  75 E6        30.10F HAZE
MORRIS*        MOSUNNY   82  50  33 S9        30.03F HX  81
ROMEOVILLE*    MOSUNNY   80  53  39 SE9       30.05F HX  80
NORTHERLY ISL    N/A     53  49  86 N7          N/A
$$

LMZ740>746-070000-
SOUTHERN LAKE MICHIGAN

STATION/POSITION SKY/WX   TEMP    WIND        PRES    VSBY  WAVE
                          AIR SEA DIR/SP/G                  HT/PER
                          (F)     (DEG/KT/KT) (MB)    (MI)  (FT/S)
HARRISON CRIB              47     330/  6/  7   N/A
BURNHAM HARBOR             53      10/  5/  8   N/A
CALUMET HARBOR             52     350/  5/  6   N/A
BURNS HARBOR               58      70/ 11/ 13 1019.3F
MICHIGAN CITY              57      30/ 11/ 11   N/A
MICHIGAN CITY 6N           54 54   70/  8/ 10   N/A           1
ST. JOSEPH                 56 52   50/  8/ 10   N/A           1/ 2
$$

ILZ025>027-034>036-040-047-049-050-058-095>099-070000-
WEST-CENTRAL ILLINOIS

CITY           SKY/WX    TMP DP  RH WIND       PRES   REMARKS
QUINCY         MOSUNNY   77  57  50 S7        29.98F
GALESBURG*     CLOUDY    78  55  43 S7        30.00S
MACOMB*        PTSUNNY   78  58  51 W13       30.02S
JACKSONVILLE*  SUNNY     86  50  28 S15       30.00F HX  83
PITTSFIELD*    SUNNY     84  50  31 S13       30.00F HX  82
$$

ILZ028>032-037-038-041>044-048-051>054-059>061-070000-
CENTRAL ILLINOIS

CITY           SKY/WX    TMP DP  RH WIND       PRES   REMARKS
PONTIAC        PTSUNNY   83  52  34 S10       30.05S HX  82
BLOOMINGTON    PTSUNNY   82  55  39 S15       30.05F HX  81
DECATUR        MOSUNNY   84  51  31 S12       30.04F HX  82
PEORIA         MOSUNNY   84  51  31 S16G24    30.01F HX  82
LACON*         PTSUNNY   82  51  34 S8G17     30.01S HX  81
LINCOLN*       PTSUNNY   85  50  29 SW7G24    30.00S HX  83
SPRINGFIELD    SUNNY     85  50  29 S16G24    30.02S HX  83
TAYLORVILLE    MOSUNNY   82  52  34 S14G22    30.03F HX  81
$$

ILZ033-039-045-046-055>057-062-063-070000-
EAST-CENTRAL ILLINOIS

CITY           SKY/WX    TMP DP  RH WIND       PRES   REMARKS
CHAMPAIGN      PTSUNNY   86  47  25 S17       30.05F HX  83
DANVILLE*      PTSUNNY   83  51  32 S7        30.05S HAZE    HX  81
RANTOUL*       PTSUNNY   85  50  29 S15       30.06S HX  83
MATTOON        MOSUNNY   82  51  34 S14       30.05F HX  81
PARIS*         PTSUNNY   83  51  32 S10       30.07F HX  82
$$

ILZ079-100>102-070000-
SOUTHWEST ILLINOIS

CITY           SKY/WX    TMP DP  RH WIND       PRES   REMARKS
ALTON          MOSUNNY   82  54  36 S14       30.02F HX  81
BELLEVILLE     SUNNY     83  53  35 S7        30.01F HX  82
CAHOKIA*       SUNNY     84  51  31 S12G21    30.01F HX  82
SPARTA*        MOSUNNY   81  55  41 SE10      30.04F HX  81
$$

ILZ064>066-069>071-074>076-080>082-084>086-088>090-092>094-070000-
SOUTH-CENTRAL ILLINOIS

CITY           SKY/WX    TMP DP  RH WIND       PRES   REMARKS
CARBONDALE     SUNNY     83  54  36 S13       30.04F HX  82
CAIRO*         MOSUNNY   83  54  35 SE15      30.05S HX  82
EFFINGHAM*     MOSUNNY   82  46  28 SE7       30.07S HX  80
MARION         MOSUNNY   82  57  42 S12       30.05F HX  82
MT. VERNON     SUNNY    N/A N/A N/A S10       30.05F
CENTRALIA*     SUNNY     85  51  31 S9        30.05F HX  83
SALEM*         SUNNY     85  49  28 S15       30.05F HX  83
METROPOLIS*    SUNNY     84  55  37 SE5       30.05F HX  82
$$

ILZ067-068-072-073-078-083-087-091-070000-
SOUTHEAST ILLINOIS

CITY           SKY/WX    TMP DP  RH WIND       PRES   REMARKS
LAWRENCEVILLE  MOSUNNY   84  55  36 VRB7      30.06F HX  83
FLORA*         SUNNY     83  52  33 S10       30.06F HX  82
FAIRFIELD*     SUNNY     84  55  36 S10       30.04F HX  83
HARRISBURG*    SUNNY     83  55  37 S7G16     30.07S HX  82
ROBINSON*      SUNNY     85  50  29 S9        30.07F HX  83
CARMI*         MOSUNNY   83  47  27 SE10      30.05F HX  81
$$

ABBREVIATIONS USED IN REMARKS
   TC - TEMPERATURE IN CELSIUS
  WCI - WIND CHILL INDEX
   HX - HEAT INDEX
  VSB - VISIBILITY
$$



USA.gov is the U.S. government's official web portal to all federal, state and local government web resources and services.